Vertical_Velocity
-0 -0 -2 1 0 -1 -0 -0 -1 -1 -0 -0 0 0 0 -2 -2 -0 -1 -0 -0 0 0 0 -1 0 -1 -0 -1 0 -0 -0 -2 -1 -1 -1 -1 -1 -0 -1 -1 -2 -2
2 1 -0 -0 1 -0 -2 -0 -1 -1 -0 1 0 1 1 -0 -1 1 1 0 -0 0 -0 -0 0 -0 1 0 -0 1 0 1 -0 -1 -1 -1 -1 -1 -0 -0 -1 -1 -2
-2 -1 -1 -1 1 0 -1 -1 -1 -0 1 1 1 0 0 0 -1 -2 -1 -0 0 -0 -1 -0 -1 -1 1 0 0 0 -0 0 -0 -1 -0 -0 -1 -2 -2 -1 -1 -1 -2
-1 -1 -1 -0 1 0 -2 -0 -1 -2 -1 1 -0 0 -1 -0 0 -1 -1 -1 -0 0 0 -1 -0 -0 -1 1 -0 -0 -0 -0 0 0 -0 -1 -1 -1 -1 -1 -1 -2 -1
1 -0 -0 0 0 0 -1 -1 -1 -1 -0 -0 0 -0 0 -2 -0 -0 -1 -1 -1 0 -1 -1 0 -0 0 0 0 0 1 1 0 -1 -2 -1 -1 -1 -2 -2 -1 -1 -1
1 1 -1 -0 1 0 0 -0 -1 -1 -1 0 1 0 1 -1 -1 -1 -0 -0 -1 -0 -0 -1 0 -0 1 -0 -0 -1 -0 -1 -1 0 0 0 -1 -2 -2 -2 -2 -2 -2
1 2 0 1 0 -0 1 1 -0 -1 -1 -0 0 1 1 0 -1 -0 0 -0 0 0 0 -0 -1 -1 1 0 -0 -0 1 0 0 -0 -1 -1 -1 -2 -1 -2 -2 -1 -1
2 0 1 1 0 0 -0 -1 0 0 -0 -0 0 0 1 0 -0 -0 0 -0 -0 -0 0 0 1 -0 -1 -1 -1 1 -0 0 -0 -0 -1 -1 -2 -2 -1 -2 -2 -2 -1
3 2 3 3 3 3 2 0 -1 2 0 1 1 1 1 1 -0 -1 -1 -1 0 1 1 0 1 0 0 0 0 -2 1 0 -0 0 -1 -1 -1 -1 -2 -2 -1 -1 -0
2 1 1 3 2 0 -0 1 1 0 0 0 0 1 1 1 0 1 1 -0 -0 0 0 1 1 1 0 -0 0 -0 -1 1 -0 -0 -1 -2 -1 -1 -2 -1 -1 -1 -1
4 1 -2 -0 0 -0 1 1 -0 -0 0 -1 0 0 -0 0 1 1 0 0 -0 -1 -0 -0 -0 -0 0 -0 -1 -0 -1 -1 -1 -1 -0 -0 -1 -1 -2 -0 -1 -1 -1
-3 -4 -2 1 1 0 1 1 2 -0 1 -1 1 -0 1 1 1 1 1 1 0 -1 -0 -0 -0 -1 -1 -1 -0 1 0 -0 -1 -1 -1 -1 -1 -0 0 -0 -1 -1 -0
18 2 7 -3 1 3 4 1 2 2 -1 -1 -0 -0 -1 1 1 1 1 1 0 0 0 0 1 1 0 1 -0 -1 0 -0 -1 0 0 -1 -1 -1 -1 -1 -1 -1 -1
2 8 2 7 1 0 5 1 2 1 2 0 -1 -0 -1 -0 -1 -1 1 1 0 -0 -0 1 -0 -0 -0 -0 1 1 1 1 0 -0 -0 -1 -1 -1 -0 -1 -1 0 -1
-3 5 21 19 8 -2 -2 1 1 2 0 -0 -2 -1 -0 0 -1 -1 -1 -0 1 -0 -1 -0 0 -1 -0 -1 -2 -2 -1 -1 -1 -2 -1 -1 -0 -0 -0 -1 1 1 -2
-0 -2 -4 13 13 11 5 -8 -2 1 1 1 -1 -1 -1 -0 1 0 1 2 1 0 -0 -1 0 0 -1 -1 -0 -0 -1 -1 -1 -1 -1 -1 -1 -2 -2 -2 -1 1 2
1 1 -2 7 16 4 -5 -4 1 -2 -0 0 1 -0 -0 0 1 -1 -0 -0 2 1 -0 -0 -0 -0 1 -0 -0 -1 -2 -1 -1 -2 -2 -2 -3 -2 -3 -2 -0 -1 -0
-3 6 -8 -3 7 5 7 0 2 5 -2 0 -1 -1 -2 -1 -2 -1 -0 1 2 1 1 2 -0 -1 -2 -1 -0 -0 -0 0 -0 -1 -0 0 0 -1 -2 -2 -0 -0 0
-4 -1 -6 -4 5 4 6 13 8 9 -1 -1 -1 2 -1 -1 1 0 -0 -0 1 1 0 -0 1 -0 -1 -2 0 1 1 0 -1 -1 -2 -0 2 1 -1 -2 2 -0 -2
-1 -3 1 -2 -0 3 -3 4 -6 16 13 2 -4 -1 2 -1 0 -2 -0 1 -0 1 -0 1 0 0 -1 -1 1 1 -0 -0 -0 -0 0 -2 -0 2 0 -0 -1 2 1
6 12 3 9 18 -1 2 -6 4 -9 -8 -5 1 1 -3 3 1 -0 -2 1 -1 1 1 0 -0 1 -1 -3 1 -1 3 1 -1 -1 2 -2 -3 -0 1 1 -2 -3 -0
9 2 -5 -5 -23 -14 -7 -6 -9 -11 3 5 4 -0 -1 -0 -0 1 -1 2 -3 -1 -1 -1 3 2 0 -0 -0 -1 10 5 -3 -2 0 -3 -5 -3 -1 3 2 -1 -1
2 6 2 -2 -7 17 -4 9 9 19 13 6 -2 -6 -3 1 1 3 2 0 -1 2 1 1 1 -1 1 1 -4 -3 -0 9 -1 0 -0 -1 -0 -2 -1 1 1 1 -1
-0 -3 3 0 -1 -3 -5 -9 -6 0 4 24 26 30 9 13 7 14 11 14 16 19 18 2 2 1 -1 2 -1 -3 -6 -2 -2 13 2 2 -5 -5 -3 3 3 -1 -1
-0 -2 -3 2 -0 -2 -2 0 -7 -6 -1 3 17 -3 11 8 10 21 17 14 1 8 3 -1 5 -5 -2 0 -3 -0 -4 -6 -5 -9 18 8 -4 -1 -3 -0 3 2 2
2 2 2 3 1 -4 0 4 2 11 -1 -1 3 2 4 25 3 4 2 2 0 6 7 2 2 -1 -5 -1 -1 1 -1 -2 -3 -8 -9 7 8 0 -4 -1 -0 2 2
Height
5868 5871 5873 5875 5877 5879 5880 5881 5882 5883 5883 5883 5883 5883 5883 5884 5884 5884 5884 5884 5884 5883 5883 5881 5880 5880 5879 5878 5878 5877 5877 5877 5876 5876 5874 5874 5873 5872 5871 5869 5867 5866 5864
5867 5869 5871 5873 5875 5876 5878 5879 5880 5881 5882 5883 5883 5883 5883 5883 5883 5884 5884 5884 5884 5883 5882 5881 5880 5880 5879 5879 5878 5877 5877 5877 5876 5875 5874 5873 5872 5871 5870 5868 5866 5865 5863
5863 5866 5868 5870 5872 5873 5875 5877 5879 5880 5881 5882 5882 5882 5882 5882 5882 5883 5883 5883 5883 5882 5881 5881 5880 5879 5879 5878 5878 5877 5877 5876 5875 5875 5874 5872 5871 5870 5869 5868 5866 5864 5862
5861 5864 5866 5868 5870 5871 5872 5875 5877 5878 5879 5881 5881 5881 5881 5881 5881 5881 5882 5882 5882 5882 5881 5880 5879 5878 5878 5878 5877 5877 5876 5876 5874 5874 5873 5871 5870 5869 5868 5867 5865 5863 5860
5857 5860 5863 5865 5867 5869 5870 5872 5874 5876 5877 5879 5880 5880 5880 5880 5880 5880 5880 5881 5881 5881 5880 5879 5879 5878 5878 5877 5876 5877 5876 5875 5874 5873 5872 5871 5870 5868 5867 5866 5864 5862 5860
5852 5856 5859 5861 5864 5866 5867 5869 5871 5873 5875 5876 5878 5878 5879 5879 5879 5879 5879 5879 5880 5880 5879 5879 5878 5878 5877 5876 5875 5875 5875 5874 5873 5872 5871 5870 5869 5868 5866 5865 5863 5860 5858
5848 5852 5854 5857 5860 5862 5865 5866 5867 5870 5872 5873 5875 5876 5877 5878 5878 5878 5878 5878 5878 5878 5878 5878 5878 5877 5877 5876 5875 5874 5874 5873 5872 5871 5870 5869 5868 5867 5865 5863 5861 5859 5857
5842 5846 5849 5852 5856 5858 5860 5862 5864 5866 5868 5870 5871 5873 5874 5875 5876 5876 5876 5876 5876 5876 5876 5876 5876 5876 5876 5875 5874 5874 5873 5872 5871 5870 5869 5868 5867 5866 5864 5862 5860 5857 5855
5835 5839 5843 5846 5850 5854 5856 5858 5860 5863 5865 5866 5868 5870 5872 5872 5874 5874 5875 5875 5875 5875 5875 5874 5874 5874 5874 5873 5872 5872 5872 5871 5870 5869 5868 5866 5865 5864 5862 5860 5857 5855 5853
5828 5833 5838 5842 5845 5849 5853 5855 5857 5860 5862 5863 5865 5866 5868 5870 5871 5872 5873 5873 5873 5873 5873 5873 5873 5872 5872 5871 5871 5870 5871 5870 5868 5868 5866 5865 5864 5862 5860 5858 5856 5853 5851
5821 5827 5833 5837 5841 5845 5849 5852 5854 5857 5859 5860 5862 5863 5864 5866 5868 5868 5870 5871 5871 5870 5870 5870 5870 5871 5870 5870 5869 5869 5868 5867 5867 5866 5865 5863 5862 5860 5858 5856 5853 5851 5848
5815 5821 5826 5831 5836 5840 5843 5848 5850 5853 5855 5857 5859 5861 5861 5863 5864 5865 5866 5867 5868 5868 5868 5868 5868 5868 5868 5868 5867 5866 5865 5864 5863 5862 5861 5860 5859 5858 5856 5853 5851 5848 5845
5812 5816 5820 5824 5828 5832 5837 5842 5845 5849 5851 5853 5855 5857 5858 5859 5860 5862 5862 5863 5864 5865 5865 5865 5865 5865 5865 5865 5864 5864 5863 5861 5860 5859 5858 5857 5856 5854 5852 5850 5848 5845 5842
5808 5811 5814 5817 5821 5825 5833 5837 5840 5843 5846 5848 5851 5853 5855 5855 5856 5858 5859 5860 5861 5861 5862 5862 5861 5861 5861 5861 5860 5860 5859 5858 5857 5855 5854 5852 5851 5850 5848 5845 5843 5841 5838
5803 5810 5815 5813 5813 5817 5823 5831 5835 5838 5840 5843 5845 5847 5850 5851 5851 5853 5854 5856 5856 5857 5857 5858 5858 5858 5857 5857 5856 5855 5855 5854 5853 5851 5849 5848 5847 5845 5843 5841 5839 5837 5833
5800 5802 5809 5815 5812 5810 5817 5821 5826 5832 5836 5839 5841 5842 5844 5846 5847 5848 5849 5851 5851 5853 5853 5853 5853 5853 5853 5853 5852 5851 5850 5849 5848 5847 5845 5843 5842 5840 5838 5836 5834 5831 5829
5795 5798 5804 5810 5813 5813 5812 5816 5820 5823 5829 5833 5836 5838 5839 5841 5842 5842 5843 5845 5846 5847 5848 5849 5848 5847 5847 5847 5847 5846 5845 5844 5843 5841 5840 5838 5837 5834 5832 5831 5828 5825 5822
5791 5796 5800 5804 5808 5812 5814 5812 5815 5818 5822 5827 5832 5835 5835 5836 5838 5839 5839 5839 5840 5841 5842 5842 5843 5842 5841 5841 5841 5841 5840 5839 5838 5836 5834 5833 5831 5829 5827 5824 5823 5820 5817
5788 5793 5796 5798 5801 5805 5809 5813 5814 5815 5817 5821 5825 5828 5830 5830 5831 5832 5834 5834 5834 5835 5835 5836 5837 5836 5836 5836 5835 5835 5834 5833 5832 5830 5828 5827 5825 5823 5821 5817 5815 5814 5811
5785 5790 5791 5791 5795 5796 5801 5807 5810 5814 5815 5817 5819 5822 5824 5824 5826 5827 5827 5827 5827 5828 5828 5829 5829 5830 5830 5829 5829 5828 5827 5826 5825 5824 5822 5820 5818 5816 5814 5812 5809 5807 5804
5779 5781 5783 5784 5785 5787 5792 5798 5804 5804 5810 5814 5813 5816 5818 5818 5818 5820 5821 5820 5820 5820 5821 5821 5821 5822 5821 5821 5822 5820 5821 5819 5817 5816 5815 5813 5810 5808 5806 5804 5801 5798 5795
5774 5777 5779 5780 5785 5784 5789 5793 5796 5797 5800 5801 5804 5807 5808 5810 5811 5811 5812 5812 5812 5813 5812 5812 5812 5813 5813 5812 5813 5812 5813 5813 5810 5808 5806 5804 5802 5799 5797 5794 5792 5788 5786
5770 5772 5774 5778 5778 5780 5782 5785 5789 5791 5792 5793 5795 5797 5799 5802 5803 5803 5803 5803 5802 5801 5802 5802 5803 5805 5805 5804 5803 5802 5801 5803 5801 5799 5797 5794 5793 5790 5787 5784 5781 5778 5775
5764 5767 5771 5773 5775 5778 5779 5780 5782 5784 5785 5786 5787 5785 5787 5790 5791 5791 5792 5792 5791 5790 5790 5792 5794 5795 5795 5794 5793 5791 5790 5789 5789 5791 5788 5784 5782 5780 5777 5774 5772 5769 5766
5756 5760 5763 5766 5768 5770 5772 5773 5775 5778 5778 5780 5780 5781 5784 5783 5783 5781 5782 5783 5785 5785 5784 5784 5784 5784 5784 5784 5782 5781 5781 5779 5777 5776 5777 5774 5770 5768 5766 5764 5762 5760 5756
5751 5754 5756 5758 5760 5761 5763 5765 5766 5767 5768 5769 5771 5772 5776 5775 5776 5774 5775 5774 5775 5775 5774 5774 5773 5774 5774 5774 5773 5771 5770 5769 5767 5765 5763 5762 5759 5757 5755 5753 5750 5749 5746